Location: Chuathbaluk
(61.5726°N, 159.2454°W)
Time: 02:17:03
(UTC+00:00)

TIGRISAT - Pass Details

Date: 22 January 2021
Orbit: 605 x 688 km, 97.7° (Epoch: 05 March)

Event Time Altitude Azimuth Distance (km) Brightness Sun altitude
Rises 16:46:24 0° 154° (SSE) 2,872 ? -17.4°
Reaches altitude 10° 16:48:33 10° 153° (SSE) 1,978 ? -17.1°
Maximum altitude 16:52:50 73° 69° (ENE) 660 ? -16.6°
Drops below altitude 10° 16:57:15 10° 345° (NNW) 2,034 ? -16.1°
Enters shadow 16:58:25 - 344° (NNW) 2,519 ? -15.9°
